Location: Radomski Observatory
(40.2854°N, 79.5145°W)
Time: 03:02:05
(UTC-04:00)

Cosmos 1072 Rocket - Visible Passes

Search period start: 03 September 2014 00:00
Search period end: 13 September 2014 00:00
Orbit: 949 x 1009 km, 82.9° (Epoch: 02 September)

Date Brightness Start Highest point End Pass type
(mag) Time Alt. Az. Time Alt. Az. Time Alt. Az.
03 Sep 6.2 20:26:40 10° NE 20:29:46 14° ENE 20:32:43 10° E visible
03 Sep 4.4 22:09:42 10° N 22:16:05 89° W 22:17:28 59° S visible
03 Sep 6.9 23:58:07 10° NW 00:00:33 12° W 00:02:13 11° W visible
04 Sep 5.6 20:51:34 10° NNE 20:56:44 26° ENE 20:59:18 20° ESE visible
04 Sep 5.2 22:36:21 10° NNW 22:42:26 49° W 22:44:04 40° SW visible
05 Sep 4.8 21:17:23 10° N 21:23:29 46° ENE 21:25:57 32° SE visible
05 Sep 6.2 23:03:26 10° NNW 23:08:36 27° W 23:10:42 22° WSW visible
06 Sep 6.3 20:01:05 10° NE 20:03:36 12° ENE 20:06:07 10° E visible
06 Sep 4.4 21:43:38 10° N 21:50:02 83° E 21:52:37 39° SSE visible
06 Sep 6.9 23:31:31 10° NW 23:34:35 14° W 23:37:23 11° WSW visible
07 Sep 5.7 20:25:39 10° NNE 20:30:37 23° ENE 20:34:35 14° ESE visible
07 Sep 5.1 22:10:13 10° NNW 22:16:24 55° W 22:19:21 31° SSW visible
08 Sep 5.0 20:51:23 10° N 20:57:24 42° ENE 21:01:22 20° SE visible
08 Sep 6.1 22:37:13 10° NNW 22:42:36 30° W 22:46:09 18° SW visible
09 Sep 4.5 21:17:34 10° N 21:23:59 76° E 21:28:14 23° SSE visible
09 Sep 6.9 23:05:02 10° NW 23:08:37 16° W 23:12:13 10° WSW visible
10 Sep 5.8 19:59:46 10° NNE 20:04:29 21° ENE 20:09:11 10° ESE visible
10 Sep 5.0 21:44:06 10° NNW 21:50:23 60° W 21:55:11 18° SSW visible
11 Sep 5.1 20:25:23 10° N 20:31:18 38° ENE 20:37:11 10° SE visible
11 Sep 6.0 22:11:02 10° NNW 22:16:36 33° W 22:22:10 10° SSW visible
12 Sep 4.5 20:51:31 10° N 20:57:55 69° E 21:04:17 10° SSE visible
12 Sep 6.9 22:38:39 10° NW 22:42:39 18° W 22:46:39 10° WSW visible
